Flag for U.S.A. Weather past 2 weeks in Billings, Montana, U.S.A.

Now
67 °F

Passing clouds.


Feels Like: 67 °F
Forecast: 65 / 88 °F
Wind: 9 mph from Northeast

Location: Billings Logan International Airport

Current Time: Jul 29, 2014 at 6:53:22 AM

Latest Report: Jul 29, 2014 at 5:53 AM


Visibility: 10 mi

Pressure: 30.09 "Hg

Humidity: 44%

Dew point: 44 °F

Location of BillingsLocation

Historic Weather in Billings — Graph

°F

Billings temperature yesterday

Maximum temperature yesterday: 92 °F (at 3:53 PM)
Minimum temperature yesterday: 62 °F (at 4:53 AM)
Average temperature yesterday: 76 °F

Past Weeks' High & Low Weather Summary

 TemperatureHumidityPressure
High99 °F (Jul 24, 2:53 PM)90% (Jul 23, 6:53 AM)30.27 "Hg (Jul 23, 6:53 AM)
Low53 °F (Jul 27, 5:53 AM)9% (Jul 24, 3:53 PM)29.62 "Hg (Jul 24, 2:53 PM)
Average74 °F41%29.93 "Hg
* Reported Jul 14 5:53 AM — Jul 29 5:53 AM, Billings, Weather by CustomWeather, © 2014

Note: Actual official high and low records may vary slightly from our data, if they occured in-between our weather recording intervals... More about our weather records

Advertising

Billings weather history for previous 24 hours

 ConditionsComfort  
Time TempWeatherWind HumidityBarometerVisibility
5:53 AM
Jul 29
67 °FPassing clouds.9 mph44%30.09 "Hg10 mi
4:53 AM66 °FPassing clouds.9 mph45%30.08 "Hg10 mi
3:53 AM68 °FPassing clouds.5 mph44%30.07 "Hg10 mi
2:53 AM70 °FPassing clouds.No wind41%30.08 "Hg10 mi
1:53 AM72 °FPassing clouds.5 mph38%30.07 "Hg10 mi
12:53 AM73 °FPassing clouds.5 mph38%30.09 "Hg10 mi
11:53 PM
Jul 28
76 °FPassing clouds.9 mph33%30.09 "Hg10 mi
10:53 PM78 °FPassing clouds.10 mph31%30.10 "Hg10 mi
9:53 PM80 °FPassing clouds.8 mph30%30.09 "Hg10 mi
8:53 PM81 °FOvercast.12 mph30%30.07 "Hg10 mi
7:53 PM84 °FPartly sunny.16 mph27%30.07 "Hg10 mi
6:53 PM87 °FPartly sunny.14 mph26%30.06 "Hg10 mi
5:53 PM90 °FScattered clouds.17 mph22%30.06 "Hg10 mi
4:53 PM91 °FScattered clouds.14 mph20%30.07 "Hg10 mi
3:53 PM92 °FScattered clouds.12 mph18%30.07 "Hg10 mi
2:53 PM90 °FPassing clouds.9 mph18%30.10 "Hg10 mi
1:53 PM88 °FPassing clouds.10 mph23%30.11 "Hg10 mi
12:53 PM82 °FPassing clouds.10 mph32%30.14 "Hg10 mi
11:53 AM79 °FScattered clouds.7 mph34%30.16 "Hg10 mi
10:53 AM75 °FPassing clouds.5 mph33%30.18 "Hg10 mi
9:53 AM72 °FPassing clouds.No wind38%30.19 "Hg10 mi
8:53 AM67 °FPassing clouds.No wind47%30.20 "Hg10 mi
7:53 AM65 °FPassing clouds.3 mph45%30.20 "Hg10 mi
6:53 AM63 °FPassing clouds.No wind47%30.19 "Hg10 mi
Weather by CustomWeather, © 2014

See weather overviewHow to use our weather pages